sat.trackr.live / text

‹ back to catalog

STARLINK-35647

NORAD 66388 · 2025-257J

PAYLOAD ACTIVE UNKNOWN

§ Identity

Operator
Country
US
Launch date
2025-11-09
Launch site
AFETR
Launch vehicle
Mass (kg)
RCS (m²)

Purposes: comms

External: N2YO · Heavens-Above · Gunter

§ Orbital elements

Epoch: 2026-09-20T20:24:41.427936Z

Period
93.85 min
Inclination
53.1596°
Eccentricity
0.0001226
Mean motion
15.34407186 rev/d
Perigee alt
461.8 km
Apogee alt
463.5 km
Semi-major
6,840.8 km
B*
4.7892e-4
RAAN
28.3859°
Arg perigee
68.2193°
Mean anomaly
291.8940°
Rev number
4,963

§ Raw data

STARLINK-356471 66388U 25257J   26263.85047949  .00015843  00000+0  47892-3 0  99902 66388  53.1596  28.3859 0001226  68.2193 291.8940 15.34407186 49631

JSON: /api/v1/satellites/66388 · /tle

For live sub-satellite position, see the globe view (requires WebGL).

§ Visibility from observer

Set your observer location to see the next 7 days of passes ≥ 10°. The values pass through the URL so the page stays shareable.

No JS? Fill the form by hand. The geolocation button needs JavaScript.